Theta_e
362 364 364 361 361 363 361 358 357 355 354 350 351 349 347 345 346 347 344 342 341 342 343 342 342 345 338 336 336 336 334 332 327 328 331 335 338 338 338 339 338 338 336
362 364 363 363 364 359 361 359 355 353 352 350 348 349 346 345 346 344 341 340 341 340 341 342 341 339 343 344 336 339 337 336 330 330 334 331 337 340 338 338 336 335 336
360 358 360 362 360 361 360 355 353 349 349 346 346 345 343 344 344 345 345 343 341 341 341 341 340 340 341 339 339 335 333 333 334 330 329 331 332 332 334 337 337 338 333
356 358 362 362 361 356 359 353 349 344 345 343 342 338 340 343 344 344 344 343 342 341 342 342 342 341 340 340 338 340 337 334 334 329 329 329 330 332 333 327 327 329 328
357 357 360 362 361 358 356 352 348 344 342 344 337 330 332 338 340 343 343 342 341 342 343 343 343 342 338 335 336 339 340 333 328 327 326 326 326 329 330 327 325 326 330
358 358 361 361 359 357 354 351 347 347 344 334 332 333 332 334 331 330 339 340 342 343 342 343 342 340 337 331 330 329 331 331 330 326 325 325 328 329 328 325 324 322 319
358 359 360 361 358 355 352 349 347 345 342 340 338 341 336 338 327 326 330 339 341 344 342 342 341 334 337 339 331 327 327 325 325 330 328 328 328 329 330 325 324 322 320
358 359 360 359 354 351 348 346 347 342 340 339 340 343 338 338 326 324 328 341 342 343 343 342 340 340 340 337 337 334 333 334 334 330 331 330 329 328 325 324 323 322 321
356 357 358 357 353 349 347 343 344 342 339 336 340 342 339 337 323 321 328 339 340 341 341 339 337 337 329 323 330 330 331 332 326 321 318 317 317 318 319 320 319 316 314
355 357 358 356 353 349 348 346 345 342 338 337 339 341 335 341 323 319 325 338 337 335 339 338 325 329 319 317 328 329 327 327 327 327 326 323 321 324 321 323 320 316 314
356 357 358 355 353 350 349 347 341 337 338 338 342 344 344 340 340 316 316 338 334 336 334 331 336 318 312 310 311 327 324 320 322 323 321 319 321 322 322 324 324 320 316
357 357 354 350 348 347 346 342 340 340 340 341 343 343 341 345 322 318 315 316 326 334 337 333 325 312 308 308 312 310 309 308 320 320 316 316 317 317 317 318 321 321 319
355 353 347 345 345 345 341 341 341 341 339 343 338 341 343 342 336 312 310 311 315 330 333 315 309 308 306 308 311 308 307 318 318 315 315 315 315 316 318 320 321 325 326
345 344 343 342 340 341 343 343 341 340 340 340 339 339 333 332 330 322 324 325 314 320 314 321 317 314 311 311 315 313 319 318 315 313 313 314 315 313 311 311 309 311 316
346 345 344 343 339 327 320 311 329 321 318 337 338 335 334 332 329 314 319 330 329 319 324 326 323 322 321 321 321 320 318 316 314 313 312 311 309 309 308 309 309 313 313
344 343 341 338 334 334 334 329 299 300 299 301 305 321 328 310 300 297 296 297 299 301 317 320 321 321 320 319 318 316 315 311 312 311 310 309 307 306 306 307 309 312 312
342 340 337 333 335 333 332 330 326 311 297 295 296 299 302 300 297 296 295 294 295 300 317 319 319 319 319 318 315 313 311 312 312 310 308 307 306 306 305 306 308 311 313
339 322 335 335 334 332 331 330 330 326 325 321 300 305 296 295 294 294 294 298 313 309 318 318 318 318 317 314 313 311 311 309 308 306 306 306 305 305 304 305 305 309 311
337 336 336 334 332 328 330 329 329 329 329 324 315 306 300 295 294 295 297 317 319 317 317 315 316 315 314 313 312 310 308 305 303 305 305 305 305 305 304 305 305 303 306
332 322 327 331 330 332 331 330 329 329 328 325 322 321 317 311 314 316 317 318 317 316 317 314 314 314 314 312 309 307 304 305 306 304 304 304 305 304 304 304 305 305 307
332 331 324 331 330 329 328 328 328 328 325 325 324 322 310 319 319 319 317 316 316 317 316 314 315 313 312 309 306 304 305 306 306 304 304 304 304 303 304 305 305 305 305
330 329 328 328 327 327 328 328 327 325 324 324 323 317 302 318 320 319 317 317 317 318 317 316 313 312 310 306 304 304 306 305 305 303 303 303 303 304 304 304 304 304 304
330 328 328 330 329 321 327 327 327 325 324 324 323 321 318 318 320 319 317 317 317 316 316 314 312 309 309 304 304 307 304 304 303 303 302 303 303 303 304 303 304 304 304
330 329 328 327 327 326 326 326 325 315 323 323 323 321 320 320 319 319 318 317 316 316 314 312 310 308 305 302 303 304 305 304 303 303 303 303 303 302 304 303 303 304 304
328 326 324 323 326 324 326 324 325 322 321 321 320 320 319 319 318 318 319 317 316 315 312 311 309 306 303 301 300 299 289 286 295 288 301 304 303 304 303 303 303 303 304
326 326 324 325 323 323 322 321 319 319 318 318 318 318 318 317 318 317 317 317 315 314 312 310 308 305 303 301 300 289 284 285 292 284 296 302 302 303 301 302 302 302 302
Wind_Speed
19 18 17 17 18 16 14 9 11 11 12 11 9 8 8 8 8 8 8 7 6 8 8 8 9 9 8 8 7 6 8 8 10 10 10 9 8 10 10 11 11 12 11
19 18 19 17 17 17 15 16 12 13 12 12 8 6 6 7 9 9 9 9 9 9 9 10 10 8 9 9 8 9 9 9 9 13 12 11 11 11 11 10 11 11 12
19 19 18 18 19 17 17 14 15 14 12 10 13 11 6 8 11 11 11 11 10 10 9 10 10 10 10 9 8 10 9 8 8 10 11 11 11 12 10 10 12 11 11
19 19 17 17 17 17 15 17 16 12 15 12 10 10 11 13 11 11 10 10 10 11 10 11 11 11 11 10 8 11 10 10 10 11 9 11 11 9 6 9 10 11 11
17 16 16 14 14 15 17 17 18 16 15 14 11 10 14 12 12 12 12 10 12 12 10 10 12 10 9 7 8 10 8 10 10 9 9 11 11 9 10 10 12 12 12
14 15 14 14 14 16 16 17 17 17 17 14 12 12 13 11 14 14 14 12 13 11 9 9 10 11 10 10 9 10 10 11 11 11 12 13 13 12 10 10 12 13 15
14 14 15 15 14 14 15 18 18 19 17 16 13 10 11 12 10 12 14 13 11 9 11 9 6 8 6 9 11 12 12 14 14 11 13 11 12 11 11 10 14 14 15
15 14 14 14 13 13 14 16 18 17 17 15 16 12 12 12 12 14 13 14 11 12 13 10 10 10 9 10 9 10 11 11 11 9 10 11 11 12 12 13 15 15 13
15 15 15 16 16 14 15 16 15 18 16 15 16 15 15 14 17 16 13 13 13 13 8 6 5 8 7 6 8 10 10 10 5 8 8 11 15 16 15 10 11 10 11
15 15 15 15 15 16 17 16 14 15 14 10 12 14 17 16 13 16 16 10 10 5 5 6 6 5 7 8 7 8 10 10 8 11 11 13 16 13 17 13 10 10 10
13 12 13 13 12 12 14 12 13 13 13 13 12 14 15 15 12 10 10 11 9 3 7 4 3 8 5 6 5 7 5 7 8 11 11 10 10 10 9 7 9 12 13
11 10 9 7 7 8 9 10 12 13 15 11 11 10 11 11 3 9 9 9 5 7 4 5 9 9 7 7 8 5 0 6 9 9 9 9 9 10 10 10 13 13 13
11 11 9 10 12 9 7 8 9 8 9 10 8 8 7 9 7 6 5 4 6 6 4 10 11 8 6 8 7 5 7 9 7 8 9 8 9 10 12 13 12 11 15
10 9 9 9 8 8 6 7 7 6 6 5 7 8 6 4 5 7 6 7 6 8 7 5 3 0 2 3 8 10 8 5 6 7 8 9 10 10 10 10 11 12 12
11 11 10 9 9 9 8 7 4 7 4 4 6 5 5 7 6 7 4 8 6 4 3 5 7 7 6 7 6 5 5 5 6 7 8 9 9 10 10 10 11 11 11
11 10 8 9 8 7 6 6 13 10 6 5 6 4 6 8 11 12 9 10 9 6 5 7 6 5 6 5 5 5 5 4 6 6 8 8 9 9 9 11 10 11 9
9 10 7 7 7 6 6 7 6 5 9 12 11 11 9 11 11 9 9 7 5 5 7 6 5 5 5 4 5 5 6 4 5 8 7 8 8 8 9 10 10 11 12
8 8 7 7 7 6 6 6 6 8 8 7 8 7 10 9 9 9 10 9 5 6 7 4 4 4 4 5 4 5 5 5 6 6 6 6 7 8 9 10 11 11 12
8 7 7 7 7 5 5 6 6 7 7 9 10 8 6 7 7 6 6 7 2 3 3 4 4 4 3 4 4 5 5 5 5 6 6 6 7 8 9 9 10 10 10
5 5 0 5 7 6 5 5 5 6 6 8 8 9 10 9 7 8 7 4 3 3 2 3 3 2 3 3 4 4 5 4 4 5 5 6 7 8 9 10 10 11 10
5 7 3 5 5 5 5 5 5 5 6 7 7 7 11 9 7 7 6 5 4 2 2 3 2 3 3 3 4 4 3 3 3 4 5 6 7 8 8 9 10 10 10
4 5 5 3 4 4 4 4 5 6 6 6 5 9 8 8 6 5 5 4 4 2 2 3 4 2 2 3 3 3 2 3 3 5 6 6 7 7 8 9 9 9 10
3 4 3 2 3 5 5 5 4 5 6 5 6 7 8 9 6 5 5 4 4 4 3 3 3 3 2 3 3 2 3 3 4 5 6 7 7 7 8 8 8 9 9
3 4 5 4 4 5 5 4 5 3 4 5 5 8 8 8 6 6 6 6 5 4 4 4 4 3 3 4 3 3 2 3 5 5 7 7 7 7 8 7 8 9 9
1 2 3 4 3 5 2 4 3 6 7 6 6 6 6 7 8 7 5 6 6 5 5 4 4 5 5 5 3 3 10 6 6 8 8 7 7 8 6 6 8 7 9
0 1 3 2 4 4 5 6 6 4 5 5 5 6 7 6 6 6 7 6 6 6 5 5 5 5 6 6 5 9 6 1 4 4 8 9 6 5 7 6 8 6 7
Wind_Direction
202 200 202 204 204 206 209 184 197 198 191 187 184 181 195 220 217 214 246 261 237 255 260 259 262 262 267 274 258 255 270 272 279 293 305 303 312 255 270 281 283 286 278
203 197 199 200 202 202 207 191 200 182 188 180 172 176 189 224 233 227 234 250 233 243 251 254 253 255 249 251 264 269 284 294 279 284 294 298 292 296 277 276 273 280 284
203 200 203 202 201 205 198 189 180 188 160 176 150 175 131 261 241 233 235 238 240 239 246 253 258 262 264 273 288 290 278 260 249 257 280 287 299 291 287 290 271 280 272
204 206 204 205 202 206 199 189 175 170 167 169 171 165 127 229 234 243 225 235 248 241 244 253 261 266 264 276 268 261 264 272 275 268 282 272 278 296 267 275 275 281 296
204 209 207 203 206 206 198 185 186 167 167 175 180 155 188 215 231 217 231 224 234 244 249 260 252 256 268 277 268 275 292 273 281 290 288 285 292 299 295 301 303 297 295
208 206 207 195 199 202 192 193 188 182 174 179 189 190 200 220 219 208 221 219 225 240 254 262 271 267 246 237 246 259 278 275 274 283 291 297 299 288 298 302 302 299 296
198 199 197 196 195 190 190 196 195 191 188 192 188 221 214 218 212 203 209 232 234 239 249 252 248 256 252 264 223 220 240 235 237 273 280 276 285 293 306 299 287 294 287
185 195 194 192 194 185 196 198 198 192 189 196 212 223 223 227 212 203 200 232 232 238 243 239 244 266 272 255 254 263 270 272 239 235 267 289 292 303 299 292 289 285 284
180 186 188 187 188 186 192 196 198 201 198 205 215 219 228 227 200 185 184 229 233 242 249 245 237 237 161 151 253 267 277 282 221 192 226 249 253 255 257 289 284 290 287
179 180 186 185 188 188 189 186 196 201 202 199 212 226 230 227 204 195 202 233 238 242 210 223 179 274 133 165 256 274 276 282 304 306 288 259 245 260 229 241 262 263 267
167 173 180 186 185 186 180 180 183 194 198 203 221 222 221 223 229 157 185 226 247 246 252 249 167 151 168 187 234 271 302 336 290 274 280 294 298 289 288 282 288 289 293
149 154 161 168 185 197 171 169 195 200 204 215 228 236 227 225 194 176 191 223 223 244 231 252 112 129 174 188 224 113 109 271 267 285 296 295 305 304 306 312 302 282 286
153 151 150 158 175 154 169 183 205 206 218 222 213 223 210 205 166 126 145 199 212 245 275 83 113 147 177 206 208 201 235 251 285 291 296 304 306 306 300 282 289 291 275
126 132 145 154 132 138 180 194 211 199 209 221 224 213 190 172 154 141 156 179 156 203 146 160 115 195 64 30 171 206 241 286 310 299 291 300 294 297 305 310 310 308 308
141 138 142 131 98 83 73 31 2 54 15 263 219 210 187 179 179 110 145 193 188 89 169 206 212 215 221 217 234 253 275 277 281 295 300 300 303 309 314 321 311 308 322
133 136 132 118 127 143 155 133 60 37 9 7 21 3 102 73 109 92 86 76 82 106 215 252 248 248 260 273 277 278 274 241 278 306 292 303 310 317 327 315 315 314 319
129 126 130 134 154 152 165 170 162 100 59 40 36 47 61 108 96 109 116 122 142 171 243 252 257 267 268 271 278 282 285 310 320 273 302 304 313 319 321 325 325 320 324
105 73 143 155 151 161 182 193 185 173 168 143 59 89 93 113 130 145 155 177 160 208 264 267 256 250 260 270 273 282 297 296 291 303 301 310 318 328 325 329 328 335 328
151 151 160 155 156 162 178 193 195 181 165 148 140 148 127 126 131 131 188 259 285 273 235 259 266 264 248 259 273 286 297 296 328 305 302 321 328 328 328 331 326 326 308
116 75 198 152 144 153 173 187 187 187 174 162 174 157 158 168 180 182 208 196 224 267 211 263 244 257 258 268 281 281 271 265 297 301 328 326 329 327 334 328 330 333 334
150 134 42 156 154 155 162 171 179 182 181 177 187 156 162 203 196 186 187 185 205 191 185 237 200 241 231 248 275 269 262 296 315 324 328 330 330 327 333 327 331 338 343
189 152 159 163 133 170 171 168 187 201 197 200 188 118 143 228 222 183 192 188 179 197 175 199 234 237 300 289 273 261 267 298 336 339 331 328 327 332 333 329 338 344 345
199 208 147 184 177 99 177 195 203 221 234 217 182 161 184 220 218 211 189 205 187 191 171 200 196 218 208 237 239 248 290 353 352 341 326 325 323 355 322 335 340 352 353
184 208 202 190 205 207 210 197 236 268 236 202 205 222 192 201 204 208 220 197 200 189 179 189 200 226 168 233 213 213 221 3 341 318 332 318 320 340 332 337 343 355 356
215 232 240 229 162 257 200 244 226 214 220 226 218 215 202 216 215 199 196 213 202 201 189 192 198 174 198 210 254 260 83 66 331 341 292 309 323 311 336 336 345 351 8
13 253 277 267 222 232 229 224 220 237 245 250 225 223 217 229 231 219 206 210 215 202 212 196 191 208 185 189 190 97 106 73 304 340 307 291 318 338 338 344 347 352 14